Skip Page Navigation
NASA JPL Caltech
NASA Logo - Jet Propulsion Laboratory + View the NASA Portal
+ Center for Near-Earth Object Studies
JPL Home Earth Solar System Stars & Galaxies Technology
JPL Solar System Dynamics
BODIES ORBITS EPHEMERIDES TOOLS PHYSICAL DATA DISCOVERY FAQ SITE MAP
JPL Small-Body Database Browser
Search: [ help ]  
233634 (2007 VF25)
Classification: Main-belt Asteroid          SPK-ID: 2233634
Ephemeris | Orbit Diagram | Orbital Elements | Mission Design | Physical Parameters | Discovery Circumstances | Close-Approach Data ]

[ show orbit diagram ]
Orbital Elements at Epoch 2459000.5 (2020-May-31.0) TDB
Reference: JPL 16 (heliocentric ecliptic J2000)
 Element Value Uncertainty (1-sigma)   Units 
e .1726063765747658 6.7713e-08  
a 2.929762079248137 3.1971e-08 au
q 2.424066462522964 1.929e-07 au
i 12.04362689162812 8.1353e-06 deg
node 12.8485261724697 2.4208e-05 deg
peri 308.5854555805482 4.5592e-05 deg
M 252.1391166123338 4.7145e-05 deg
tp 2459549.292830716712
(2021-Nov-30.79283072)
0.00024403 TDB
period 1831.668839091
5.01
2.9982e-05
8.209e-08
d
yr
n .1965420780858274 3.2171e-09 deg/d
Q 3.43545769597331 3.7489e-08 au
  Orbit Determination Parameters
   # obs. used (total)      341  
   data-arc span      7331 days (20.07 yr)  
   first obs. used      2000-03-30  
   last obs. used      2020-04-25  
   planetary ephem.      DE431  
   SB-pert. ephem.      SB431-N16  
   condition code      0  
   norm. resid. RMS      .6208  
   source      ORB  
   producer      Otto Matic  
   solution date      2020-May-21 11:12:20  

Additional Information
 Earth MOID = 1.43383 au 
 Jupiter MOID = 2.0276 au 
 T_jup = 3.222 
[ hide covariance matrix ]
Orbital Elements at Epoch 2457371.5 (2015-Dec-15.0) TDB
Reference: JPL 16 (heliocentric ecliptic J2000)
 Element Value Uncertainty (1-sigma)   Units 
e .171344644884792 6.7802e-08  
q 2.428552213580578 1.9306e-07 au
tp 2457716.886766451315
(2016-Nov-24.38676645)
0.00023267 TDB
node 12.87562243608127 2.4207e-05 deg
peri 308.6245912579165 4.5797e-05 deg
i 12.04170719655133 8.1341e-06 deg
  Orbit Determination Parameters
   # obs. used (total)      341  
   data-arc span      7331 days (20.07 yr)  
   first obs. used      2000-03-30  
   last obs. used      2020-04-25  
   planetary ephem.      DE431  
   SB-pert. ephem.      SB431-N16  
   condition code      0  
   norm. resid. RMS      .6208  
   source      ORB  
   producer      Otto Matic  
   solution date      2020-May-21 11:12:20  

Additional Information
 Jupiter MOID = 2.0276 au 
 T_jup = 3.222 
Orbit Covariance (6×6)
  e q tp node peri i
e 4.597108170569639E-15 -1.297511288371978E-14 1.130704212490252E-11 4.014923293111628E-14 1.869858438979845E-12 -9.763075012076813E-15
q -1.297511288371978E-14 3.72704999878378E-14 -3.081220178137194E-11 -1.057135060366951E-13 -5.123934547144967E-12 3.153992547825165E-14
tp 1.130704212490252E-11 -3.081220178137194E-11 5.41364791456849E-8 1.844754249910662E-10 9.068365936079737E-9 -5.634191379735198E-11
node 4.014923293111628E-14 -1.057135060366951E-13 1.844754249910662E-10 5.859661780790942E-10 -5.408182395913064E-10 3.217958515571858E-11
peri 1.869858438979845E-12 -5.123934547144967E-12 9.068365936079737E-9 -5.408182395913064E-10 2.097375239436464E-9 -4.092142580664948E-11
i -9.763075012076813E-15 3.153992547825165E-14 -5.634191379735198E-11 3.217958515571858E-11 -4.092142580664948E-11 6.616327053072127E-11

Ephemeris | Orbit Diagram | Orbital Elements | Mission Design | Physical Parameters | Discovery Circumstances | Close-Approach Data ]

Physical Parameter Table
Parameter Symbol Value Units Sigma Reference Notes
absolute magnitude H 15.2   n/a MPO475906  

233634 (2007 VF25)          Discovered 2007-Nov-02 by CSS at Catalina
Reference: 20100228/Numbers.arcLast Updated: 2010-03-03

[ show close-approach data ]
Alternate Designations
 2007 VF25 = 2000 FF53 = 2005 HP9 
Ephemeris | Orbit Diagram | Orbital Elements | Mission Design | Physical Parameters | Discovery Circumstances | Close-Approach Data ]
ABOUT SSD CREDITS/AWARDS PRIVACY/COPYRIGHT GLOSSARY LINKS
FirstGov 2020-Sep-18 21:23 UT
(server date/time)  
NASA Home Page
Site Manager:   Ryan S. Park
Webmaster  Alan B. Chamberlin